Location: Colonia Mina de C?rbuni
(46.1667°N, 22.7167°E)
Time: 10:21:51
(UTC+00:00)

deb Explorer IX - Pass Details

Date: 21 April 2024
Orbit: 513 x 891 km, 38.7° (Epoch: 21 May)

Event Time Altitude Azimuth Distance (km) Brightness Sun altitude
Rises 14:37:01 0° 268° (W) 3,527 ? 27.8°
Reaches altitude 10° 14:40:48 10° 247° (WSW) 2,567 ? 27.2°
Maximum altitude 14:44:07 15° 214° (SW) 2,193 ? 26.6°
Drops below altitude 10° 14:47:21 10° 181° (S) 2,487 ? 26.1°
Sets 14:50:56 0° 159° (SSE) 3,354 ? 25.4°
